Find Kosmos-2474

NORAD ID: 37829 Int'l Des: 2011-055 Owner: KVR/IACG Country: RU Constellation: GLONASS operational
MEOCIRCULAR

Live-Position

3D-Globus wird geladen...

Über Kosmos-2474

Beschreibung wird geladen...

Nächste Überflüge

Passes for default location (London). Set your location on the main map for personalized predictions.

Höhenverlauf

Loading altitude history...

Zweizeiliger Elementsatz

1 37829U 11055A 26104.31128675 .00000041 00000-0 00000+0 0 9991
2 37829 65.2547 75.0374 0010840 249.6791 182.8494 2.13101247113098
Epoch: 14. Apr. 2026 • Age: 20 hours

Aktueller Status

Höhe 19136.5 km
Geschwindigkeit 3.95 km/s
Subsatellitenpunkt -11.57°S, 176.42°E
Startdatum 2. Okt. 2011
Alter 14.5 years
Typ other

Technische Details

Klassifizierung Payload
Masse 1450.00 kg
Trockenmasse 1200.00 kg
Gesamtmasse 1450.00 kg
Länge 4.00 m
Durchmesser 1.50 m
Spannweite 7.80 m
Form Cyl + Ant + 2 Pan
Hersteller RESH
Bus-Typ Uragan
Phasenstatus In Orbit
Besitzer/Staat KVR/IACG/RU

Most Searched